When you browse on this site, cookies collect data to enhance your experience and personalize the content and advertising you see.
Visit our Privacy Policy to learn more. By continuing to use the site, you agree to this use of cookies and data.
  • In Austria
  • List of Countries
  • For 7 days
  • Water Temperature
  • Weather Map
  • News
  • Weather Widgets
  • user-avatar
    Login

    Hourly Weather Paralia

    Today, 20 January, Monday

    Time Temperature Precipitation Wind Pressure Humidity
    00:00 +5°C° 0 mm 3 mps 758 mmHg 83%
    01:00 +5°C° 0 mm 3 mps 758 mmHg 83%
    02:00 +4°C° 0 mm 3 mps 758 mmHg 83%
    03:00 +4°C° 0 mm 3 mps 758 mmHg 83%
    04:00 +4°C° 0 mm 3 mps 759 mmHg 83%
    05:00 +4°C° 0 mm 3 mps 759 mmHg 83%
    06:00 +4°C° 0 mm 3 mps 760 mmHg 83%
    07:00 +4°C° 0 mm 3 mps 760 mmHg 82%
    08:00 +7°C° 0 mm 3 mps 761 mmHg 76%
    09:00 +9°C° 0 mm 3 mps 761 mmHg 70%
    10:00 +10°C° 0 mm 4 mps 762 mmHg 63%
    11:00 +11°C° 0 mm 4 mps 762 mmHg 61%
    12:00 +12°C° 0 mm 4 mps 762 mmHg 59%
    13:00 +12°C° 0 mm 4 mps 762 mmHg 58%
    14:00 +11°C° 0 mm 4 mps 762 mmHg 62%
    15:00 +10°C° 0 mm 4 mps 763 mmHg 66%
    16:00 +10°C° 0 mm 4 mps 763 mmHg 71%
    17:00 +7°C° 0 mm 4 mps 763 mmHg 74%
    18:00 +6°C° 0 mm 5 mps 764 mmHg 77%
    19:00 +5°C° 0 mm 5 mps 764 mmHg 80%
    20:00 +5°C° 0 mm 5 mps 764 mmHg 80%
    21:00 +3°C° 0 mm 5 mps 765 mmHg 80%
    22:00 +3°C° 0 mm 5 mps 765 mmHg 81%
    23:00 +4°C° 0 mm 4 mps 765 mmHg 81%

    Tomorrow, 21 January, Tuesday

    Time Temperature Precipitation Wind Pressure Humidity
    00:00 +3°C° 0 mm 4 mps 765 mmHg 81%
    01:00 +3°C° 0 mm 4 mps 765 mmHg 81%
    02:00 +3°C° 0 mm 4 mps 765 mmHg 80%
    03:00 +3°C° 0 mm 4 mps 765 mmHg 79%
    04:00 +1°C° 0 mm 4 mps 765 mmHg 77%
    05:00 +1°C° 0 mm 4 mps 765 mmHg 74%
    06:00 +1°C° 0 mm 4 mps 765 mmHg 70%
    07:00 +1°C° 0 mm 4 mps 765 mmHg 67%
    08:00 +4°C° 0 mm 3 mps 765 mmHg 59%
    09:00 +8°C° 0 mm 3 mps 765 mmHg 50%
    10:00 +10°C° 0 mm 3 mps 765 mmHg 42%
    11:00 +11°C° 0 mm 3 mps 764 mmHg 41%
    12:00 +11°C° 0 mm 3 mps 764 mmHg 40%
    13:00 +12°C° 0 mm 3 mps 764 mmHg 39%
    14:00 +11°C° 0 mm 3 mps 763 mmHg 44%
    15:00 +10°C° 0 mm 3 mps 763 mmHg 50%
    16:00 +9°C° 0 mm 3 mps 763 mmHg 56%
    17:00 +8°C° 0 mm 3 mps 763 mmHg 56%
    18:00 +7°C° 0 mm 3 mps 762 mmHg 55%
    19:00 +4°C° 0 mm 3 mps 762 mmHg 55%
    20:00 +4°C° 0 mm 3 mps 762 mmHg 51%
    21:00 +4°C° 0 mm 3 mps 762 mmHg 47%
    22:00 +4°C° 0 mm 3 mps 762 mmHg 43%
    23:00 +5°C° 0 mm 2 mps 762 mmHg 41%

    Day after tomorrow, 22 January, Wednesday

    Time Temperature Precipitation Wind Pressure Humidity
    00:00 +5°C° 0 mm 2 mps 761 mmHg 39%
    01:00 +5°C° 0 mm 2 mps 761 mmHg 37%
    02:00 +5°C° 0 mm 2 mps 761 mmHg 36%
    03:00 +5°C° 0 mm 2 mps 760 mmHg 35%
    04:00 +6°C° 0 mm 1 mps 760 mmHg 34%
    05:00 +6°C° 0 mm 1 mps 760 mmHg 34%
    06:00 +6°C° 0 mm 1 mps 760 mmHg 34%
    07:00 +6°C° 0 mm 1 mps 760 mmHg 34%
    08:00 +8°C° 0 mm 1 mps 760 mmHg 33%
    09:00 +10°C° 0 mm 1 mps 760 mmHg 32%
    10:00 +13°C° 0 mm 1 mps 760 mmHg 31%
    11:00 +13°C° 0 mm 1 mps 759 mmHg 31%
    12:00 +14°C° 0 mm 1 mps 758 mmHg 32%
    13:00 +14°C° 0 mm 2 mps 758 mmHg 33%
    14:00 +13°C° 0 mm 2 mps 757 mmHg 40%
    15:00 +12°C° 0 mm 2 mps 757 mmHg 47%
    16:00 +11°C° 0 mm 1 mps 756 mmHg 54%
    17:00 +10°C° 0 mm 1 mps 756 mmHg 53%
    18:00 +9°C° 0 mm 1 mps 756 mmHg 52%
    19:00 +8°C° 0 mm 1 mps 756 mmHg 51%
    20:00 +7°C° 0 mm 1 mps 756 mmHg 49%
    21:00 +7°C° 0 mm 1 mps 755 mmHg 48%
    22:00 +7°C° 0 mm 1 mps 755 mmHg 47%
    23:00 +7°C° 0 mm 1 mps 755 mmHg 47%

    23 January, Thursday

    Time Temperature Precipitation Wind Pressure Humidity
    00:00 +7°C° 0 mm 1 mps 755 mmHg 47%
    01:00 +7°C° 0 mm 1 mps 755 mmHg 48%
    02:00 +7°C° 0 mm 1 mps 755 mmHg 50%
    03:00 +7°C° 0 mm 1 mps 754 mmHg 52%
    04:00 +6°C° 0 mm 2 mps 754 mmHg 53%
    05:00 +7°C° 0 mm 1 mps 754 mmHg 56%
    06:00 +7°C° 0 mm 1 mps 754 mmHg 58%
    07:00 +7°C° 0 mm 1 mps 754 mmHg 60%
    08:00 +9°C° 0 mm 1 mps 754 mmHg 55%
    09:00 +12°C° 0 mm 1 mps 755 mmHg 49%
    10:00 +14°C° 0 mm 1 mps 755 mmHg 44%
    11:00 +15°C° 0 mm 1 mps 755 mmHg 43%
    12:00 +16°C° 0 mm 1 mps 755 mmHg 42%
    13:00 +16°C° 0 mm 1 mps 755 mmHg 42%
    14:00 +15°C° 0 mm 2 mps 755 mmHg 47%
    15:00 +14°C° 0 mm 2 mps 755 mmHg 52%
    16:00 +12°C° 0 mm 3 mps 756 mmHg 58%
    17:00 +10°C° 0 mm 3 mps 756 mmHg 62%
    18:00 +8°C° 0 mm 4 mps 757 mmHg 67%
    19:00 +7°C° 0 mm 4 mps 758 mmHg 72%
    20:00 +6°C° 0 mm 4 mps 758 mmHg 74%
    21:00 +6°C° 0 mm 4 mps 759 mmHg 77%
    22:00 +6°C° 0 mm 4 mps 759 mmHg 79%
    23:00 +5°C° 0 mm 4 mps 759 mmHg 80%

    24 January, Friday

    Time Temperature Precipitation Wind Pressure Humidity
    00:00 +5°C° 0 mm 4 mps 759 mmHg 80%
    01:00 +5°C° 0 mm 4 mps 759 mmHg 81%
    02:00 +5°C° 0 mm 4 mps 760 mmHg 80%
    03:00 +5°C° 0 mm 4 mps 760 mmHg 79%
    04:00 +5°C° 0 mm 4 mps 760 mmHg 78%
    05:00 +5°C° 0 mm 4 mps 760 mmHg 78%
    06:00 +5°C° 0 mm 4 mps 760 mmHg 77%
    07:00 +5°C° 0 mm 4 mps 761 mmHg 76%
    08:00 +7°C° 0 mm 4 mps 761 mmHg 72%
    09:00 +9°C° 0 mm 3 mps 761 mmHg 68%
    10:00 +10°C° 0 mm 3 mps 762 mmHg 64%
    11:00 +11°C° 0 mm 3 mps 761 mmHg 64%
    12:00 +11°C° 0 mm 3 mps 761 mmHg 65%
    13:00 +13°C° 0 mm 2 mps 760 mmHg 65%
    14:00 +13°C° 0 mm 2 mps 760 mmHg 69%
    15:00 +12°C° 0 mm 2 mps 760 mmHg 72%
    16:00 +12°C° 0 mm 1 mps 760 mmHg 76%
    17:00 +11°C° 0 mm 1 mps 760 mmHg 79%
    18:00 +10°C° 0 mm 1 mps 760 mmHg 82%
    19:00 +9°C° 0 mm 1 mps 760 mmHg 86%
    20:00 +9°C° 0 mm 1 mps 760 mmHg 85%
    21:00 +9°C° 0 mm 1 mps 760 mmHg 85%
    22:00 +8°C° 0 mm 1 mps 760 mmHg 84%
    23:00 +8°C° 0 mm 1 mps 759 mmHg 84%

    25 January, Saturday

    Time Temperature Precipitation Wind Pressure Humidity
    00:00 +8°C° 0 mm 1 mps 759 mmHg 84%
    01:00 +8°C° 0 mm 1 mps 759 mmHg 84%
    02:00 +8°C° 0 mm 1 mps 758 mmHg 85%
    03:00 +8°C° 0 mm 1 mps 758 mmHg 85%
    04:00 +9°C° 0 mm 1 mps 758 mmHg 86%
    05:00 +9°C° 0 mm 1 mps 758 mmHg 87%
    06:00 +9°C° 0 mm 1 mps 758 mmHg 87%
    07:00 +9°C° 0 mm 1 mps 758 mmHg 88%
    08:00 +10°C° 0 mm 1 mps 758 mmHg 83%
    09:00 +12°C° 0 mm 1 mps 758 mmHg 77%
    10:00 +14°C° 0 mm 1 mps 758 mmHg 72%
    11:00 +14°C° 0 mm 2 mps 758 mmHg 69%
    12:00 +15°C° 0 mm 2 mps 757 mmHg 67%
    13:00 +15°C° 0 mm 2 mps 757 mmHg 64%
    14:00 +15°C° 0 mm 2 mps 756 mmHg 69%
    15:00 +14°C° 0 mm 2 mps 756 mmHg 74%
    16:00 +13°C° 0 mm 2 mps 756 mmHg 79%
    17:00 +12°C° 0 mm 2 mps 756 mmHg 83%
    18:00 +10°C° 0 mm 2 mps 756 mmHg 86%
    19:00 +10°C° 0 mm 1 mps 756 mmHg 90%
    20:00 +10°C° 0 mm 1 mps 756 mmHg 89%
    21:00 +10°C° 0 mm 1 mps 756 mmHg 88%
    22:00 +9°C° 0 mm 2 mps 756 mmHg 87%
    23:00 +10°C° 0 mm 1 mps 756 mmHg 86%
    Show more